Location: Calvatone
(45.1167°N, 10.4333°E)
Time: 20:16:42
(UTC+00:00)

Cosmos 2322 Rocket - Pass Details

Date: 28 January 2023
Orbit: 832 x 851 km, 71.0° (Epoch: 21 March)

Event Time Altitude Azimuth Distance (km) Brightness Sun altitude
Rises 18:01:17 0° 176° (S) 3,363 5.4 -17.9°
Reaches altitude 10° 18:03:56 10° 166° (SSE) 2,432 4.5 -18.4°
Enters shadow 18:08:45 33° 106° (ESE) 1,380 2.8 -19.3°
